Regional Weather Roundup
Issued by NWS Kansas City/Pleasant Hill, MO

Home | Current Version | Previous Version | Graphics & Text | Print | Product List | Glossary Off
Versions: 1 2 3 4 5 6 7 8 9 10 11 12 13 14 15 16 17 18 19 20 21 22 23 24 25 26 27 28 29 30 31 32 33 34 35 36 37 38 39 40 41 42 43 44 45 46 47 48 49 50

000
ASUS43 KEAX 040410
RWREAX

WEATHER ROUNDUP FOR EASTERN KANSAS AND NORTHWEST MISSOURI
NATIONAL WEATHER SERVICE KANSAS CITY/PLEASANT HILL MO
1000 PM CST TUE MAR 03 2015

KSZ040-057-103>105-MOZ028-029-037-043-040500-
...KANSAS CITY METROPOLITAN AREA...

CITY           SKY/WX    TMP DP  RH WIND       PRES   REMARKS
K.C. INTL      CLOUDY    31  23  72 N13       29.99R WCI  21
K.C. DOWNTOWN  CLOUDY    34  24  67 N16G23    29.99R WCI  24
LEES SUMMIT    CLOUDY    33  26  75 N12       29.97R WCI  24
OLATHE - IXD   CLOUDY    32  25  75 N18       29.98R WCI  20
OLATHE - OJC   CLOUDY    33  25  72 N15       29.95R WCI  23
LAWRENCE       CLOUDY    32  21  64 N13       30.00R WCI  22

$$

MOZ001>008-011>017-020>025-030>033-038>040-044>046-053-054-040500-
...NORTHERN AND CENTRAL MISSOURI...

CITY           SKY/WX    TMP DP  RH WIND       PRES   REMARKS
ST. JOSEPH     CLOUDY    29  19  66 N20       30.04R WCI  16
MOSBY          CLOUDY    32  27  80 N21       29.99R WCI  20
WARRENSBURG    CLOUDY    34  28  80 N8        29.96S WCI  27
WHITEMAN AFB   CLOUDY    34  28  77 N13       29.92F WCI  25
CLINTON        CLOUDY    36  32  87 N13G20    29.94R WCI  27
SEDALIA        CLOUDY    35  28  75 N15       29.94R WCI  25
WARSAW         NOT AVBL
MARSHALL       CLOUDY    37  30  75 N12       29.97R WCI  30
CHILLICOTHE      N/A     33  24  69 N9        30.01R WCI  25
MOBERLY        CLOUDY    36  28  75 N8        29.95R WCI  29
KIRKSVILLE     NOT AVBL

$$

MOZ041-047>049-056>058-063>065-088>090-097-040500-
...EASTERN AND SOUTHERN MISSOURI...

CITY           SKY/WX    TMP DP  RH WIND       PRES   REMARKS
ST. LOUIS INTL CLOUDY    39  35  86 N7        29.92R WCI  34
SPIRIT OF STL  LGT RAIN  39  36  89 N8        29.92R WCI  33
COLUMBIA       CLOUDY    36  31  82 N15       29.93R WCI  27
JEFFERSON CITY CLOUDY    38  32  79 N9        29.94R WCI  31
MEXICO         CLOUDY   N/A N/A N/A N9        29.93
HANNIBAL       CLOUDY    36  30  80 N9        29.94S WCI  29
ROLLA          LGT RAIN  37  36  96 N10       29.89R FOG     WCI  30
OSAGE BEACH    CLOUDY    37  34  87 N3        29.94R
SPRINGFIELD    CLOUDY    42  40  92 CALM      29.89R
BRANSON        CLOUDY    45  43  93 CALM      29.90F
NEVADA         DRIZZLE   36  32  87 N9        29.98R WCI  29
JOPLIN         CLOUDY    41  39  93 N10       29.91R WCI  35
WEST PLAINS    CLOUDY    43  41  93 N6        29.89F FOG

$$

IAZ060-094-KSZ022-034>040-054-083-096-NEZ052-066-093-040500-
...KANSAS...SOUTHEAST NEBRASKA AND IOWA...

CITY           SKY/WX    TMP DP  RH WIND       PRES   REMARKS
TOPEKA         CLOUDY    31  21  66 N9        30.03R WCI  23
MANHATTAN      MOCLDY    30  14  51 N14G23    30.03R WCI  19
EMPORIA        CLOUDY    32  21  64 N15G24    29.97R WCI  22
CHANUTE        LGT RAIN  38  30  73 N18       29.97R WCI  28
WICHITA        CLOUDY    35  21  56 N18G26    29.98R WCI  24
OMAHA          MOCLDY    19   8  62 N13       30.11R WCI   6
LINCOLN        PTCLDY    19   7  59 N13       30.13R WCI   6
FALLS CITY     CLOUDY    26  10  50 N13       30.06R WCI  15
LAMONI         CLOUDY    25  16  68 N16       30.01R WCI  12
DES MOINES     MOCLDY    20  10  65 N15       30.05R WCI   6

$$



USA.gov is the U.S. government's official web portal to all federal, state and local government web resources and services.